EW4330 Weather Reports


time (UTC)temp
F
wind
direction
speed
knots
gust
knots
rain 1hr
in
rain 24hr
in
rain mn
in
humidity
%
barometer
mb
20260508060007 61 270 0.0 0.9 0.00 0.00 0.00 69 1011.0
20260508055508 61 270 0.0 1.7 0.00 0.00 0.00 69 1011.0
20260508055010 61 281 0.9 1.7 0.00 0.00 0.00 69 1011.0
20260508054507 60 248 0.9 1.7 0.00 0.00 0.00 69 1011.0
20260508054008 60 225 0.9 2.6 0.00 0.00 0.00 70 1011.0
20260508053508 59 293 1.7 4.3 0.00 0.00 0.00 70 1011.0
20260508052508 59 267 0.9 2.6 0.00 0.00 0.00 72 1011.0
20260508052008 59 257 0.9 4.3 0.00 0.00 0.00 72 1011.0
20260508051506 58 239 0.9 2.6 0.00 0.00 0.00 71 1011.0
20260508051007 58 230 1.7 4.3 0.00 0.00 0.00 71 1011.0
20260508050509 58 218 2.6 2.6 0.00 0.00 0.00 71 1011.0
20260508045008 58 232 1.7 4.3 0.00 0.00 0.00 71 1011.0
20260508044509 58 221 1.7 4.3 0.00 0.00 0.00 71 1011.0
20260508043507 58 245 1.7 4.3 0.00 0.00 0.00 71 1010.0
20260508043008 58 215 2.6 4.3 0.00 0.00 0.00 71 1010.0
20260508042008 58 235 1.7 5.2 0.00 0.00 0.00 70 1010.0
20260508041008 58 239 1.7 4.3 0.00 0.00 0.00 70 1010.0
20260508040510 58 216 2.6 4.3 0.00 0.00 0.00 70 1010.0
20260508040007 58 238 1.7 4.3 0.00 0.00 0.00 69 1010.0
20260508035008 58 235 2.6 4.3 0.00 0.00 0.00 69 1010.0
20260508034509 58 228 2.6 2.6 0.00 0.00 0.00 69 1010.0
20260508034008 58 235 2.6 5.2 0.00 0.00 0.00 68 1010.0
20260508033508 58 247 2.6 4.3 0.00 0.00 0.00 68 1010.0
20260508033007 58 227 1.7 4.3 0.00 0.00 0.00 68 1010.0
20260508031507 58 247 2.6 5.2 0.00 0.00 0.00 67 1010.0
20260508031007 58 264 1.7 4.3 0.00 0.00 0.00 67 1010.0
20260508030509 58 225 2.6 5.2 0.00 0.00 0.00 67 1010.0
20260508030007 58 263 2.6 5.2 0.00 0.00 0.00 67 1010.0
20260508025507 58 253 2.6 4.3 0.00 0.00 0.00 66 1010.0
20260508025008 58 223 1.7 4.3 0.00 0.00 0.00 66 1010.0
20260508024508 58 239 1.7 2.6 0.00 0.00 0.00 66 1010.0
20260508024007 58 251 2.6 4.3 0.00 0.00 0.00 65 1010.0
20260508023008 59 260 1.7 4.3 0.00 0.00 0.00 65 1010.0
20260508022508 59 215 1.7 4.3 0.00 0.00 0.00 64 1011.0
20260508022009 59 236 2.6 4.3 0.00 0.01 0.00 64 1011.0
20260508021507 59 231 1.7 4.3 0.00 0.02 0.00 63 1011.0
20260508021008 59 252 1.7 2.6 0.00 0.02 0.00 62 1011.0
20260508020509 59 228 1.7 4.3 0.00 0.02 0.00 63 1011.0
20260508020007 59 223 2.6 4.3 0.00 0.03 0.00 62 1011.0
20260508015008 59 223 2.6 5.2 0.00 0.04 0.00 61 1011.0
20260508014007 59 234 2.6 4.3 0.00 0.05 0.00 61 1011.0
20260508013508 59 245 1.7 4.3 0.00 0.05 0.00 61 1011.0
20260508013008 59 272 2.6 5.2 0.00 0.05 0.00 60 1011.0
20260508012509 59 213 2.6 4.3 0.00 0.05 0.00 60 1011.0
20260508012008 59 245 1.7 4.3 0.00 0.05 0.00 60 1011.0
20260508011507 59 249 1.7 2.6 0.00 0.05 0.00 60 1011.0
20260508011007 59 246 1.7 2.6 0.00 0.05 0.00 59 1011.0
20260508010509 59 250 1.7 4.3 0.00 0.05 0.00 59 1011.0
20260508010007 59 226 1.7 4.3 0.00 0.05 0.00 59 1011.0
20260508005507 59 255 2.6 4.3 0.00 0.05 0.00 58 1011.0
20260508005007 60 240 1.7 2.6 0.00 0.05 0.00 58 1011.0
20260508004508 60 258 0.9 2.6 0.00 0.07 0.00 58 1011.0
20260508003507 60 260 0.9 2.6 0.00 0.11 0.00 58 1011.0
20260508003008 60 248 1.7 2.6 0.00 0.13 0.00 58 1011.0
20260508002508 60 256 1.7 2.6 0.00 0.14 0.00 57 1010.0
20260508002008 60 243 1.7 2.6 0.00 0.15 0.00 58 1010.0
20260508001507 60 230 1.7 2.6 0.00 0.16 0.00 58 1010.0
20260508001007 60 252 1.7 2.6 0.00 0.17 0.00 58 1010.0
20260508000509 60 284 1.7 2.6 0.00 0.18 0.00 58 1010.0
20260508000007 60 288 1.7 2.6 0.00 0.18 0.00 59 1010.0
20260507235507 60 237 1.7 2.6 0.00 0.18 0.00 59 1011.0
20260507235008 61 143 0.9 4.3 0.00 0.19 0.00 59 1011.0
20260507233507 61 246 1.7 5.2 0.00 0.20 0.00 61 1011.0
20260507233006 61 239 2.6 5.2 0.00 0.20 0.00 61 1011.0
20260507232007 60 251 1.7 4.3 0.00 0.20 0.00 62 1011.0
20260507231506 60 257 1.7 2.6 0.00 0.20 0.00 63 1011.0
20260507230006 60 223 2.6 4.3 0.00 0.21 0.00 63 1012.0
20260507225007 60 213 1.7 5.2 0.00 0.21 0.00 64 1012.0
20260507224508 60 237 1.7 2.6 0.00 0.21 0.00 64 1012.0
20260507224007 60 252 1.7 2.6 0.00 0.21 0.00 64 1012.0
20260507223507 60 239 1.7 2.6 0.00 0.21 0.00 64 1012.0
20260507222508 60 234 1.7 1.7 0.00 0.22 0.00 65 1013.0
20260507222006 60 266 0.9 2.6 0.00 0.22 0.00 65 1013.0
20260507221507 60 250 1.7 2.6 0.00 0.23 0.00 65 1013.0
20260507221007 60 231 1.7 4.3 0.00 0.23 0.00 65 1013.0
20260507220509 60 215 0.9 1.7 0.00 0.24 0.00 65 1013.0
20260507220006 60 244 1.7 4.3 0.00 0.24 0.00 65 1013.0
20260507215507 60 241 2.6 4.3 0.00 0.24 0.21 65 1013.0
20260507215009 60 235 0.9 2.6 0.00 0.25 0.21 65 1013.0
20260507214508 60 276 1.7 2.6 0.00 0.25 0.21 65 1013.0
20260507214007 60 247 0.9 2.6 0.00 0.25 0.21 65 1012.0
20260507213507 60 230 1.7 2.6 0.00 0.25 0.21 64 1012.0
20260507213006 60 0 0.9 2.6 0.00 0.26 0.21 64 1012.0
20260507212508 60 210 0.9 1.7 0.00 0.26 0.21 64 1012.0
20260507212007 60 255 0.9 2.6 0.00 0.27 0.21 63 1012.0
20260507211506 60 231 1.7 2.6 0.00 0.27 0.21 63 1012.0
20260507211007 60 202 1.7 2.6 0.00 0.27 0.21 62 1012.0
20260507205507 60 239 1.7 2.6 0.00 0.28 0.21 61 1012.0
20260507205008 60 162 1.7 2.6 0.00 0.28 0.21 60 1012.0
20260507204507 60 248 0.9 2.6 0.00 0.28 0.21 60 1012.0
20260507204007 60 231 1.7 2.6 0.00 0.28 0.21 60 1012.0
20260507203508 60 275 0.9 1.7 0.00 0.28 0.21 60 1012.0
20260507203006 60 348 1.7 2.6 0.00 0.28 0.21 60 1012.0
20260507201506 60 252 1.7 2.6 0.00 0.28 0.21 58 1012.0
20260507201006 60 221 1.7 2.6 0.00 0.29 0.21 59 1012.0
20260507200008 60 180 0.9 1.7 0.00 0.29 0.21 60 1012.0
20260507195507 60 242 1.7 2.6 0.00 0.29 0.21 61 1012.0
20260507195008 60 219 2.6 5.2 0.00 0.29 0.21 63 1012.0
20260507194508 59 211 1.7 2.6 0.00 0.29 0.21 64 1012.0
20260507194008 59 267 2.6 5.2 0.00 0.30 0.21 67 1012.0
20260507193507 59 243 2.6 4.3 0.00 0.30 0.21 68 1012.0
20260507192508 58 227 1.7 4.3 0.00 0.31 0.21 72 1012.0
20260507192008 58 252 2.6 4.3 0.00 0.31 0.21 74 1012.0
20260507191506 58 232 1.7 2.6 0.00 0.31 0.21 74 1012.0
20260507191007 58 237 1.7 4.3 0.00 0.31 0.21 74 1012.0
20260507190509 58 242 2.6 4.3 0.00 0.32 0.21 74 1012.0
20260507190006 58 228 2.6 4.3 0.00 0.32 0.21 73 1012.0
20260507185507 59 237 2.6 4.3 0.00 0.33 0.21 73 1012.0
20260507185007 59 243 2.6 4.3 0.00 0.34 0.21 72 1012.0
20260507184507 59 257 2.6 4.3 0.00 0.34 0.21 72 1012.0
20260507184007 60 232 2.6 4.3 0.00 0.34 0.21 72 1012.0
20260507183507 60 246 1.7 2.6 0.00 0.34 0.21 72 1012.0
20260507183006 60 248 1.7 1.7 0.00 0.34 0.21 72 1012.0
20260507182508 60 225 0.9 1.7 0.00 0.34 0.21 72 1012.0
20260507181506 61 232 1.7 2.6 0.00 0.34 0.21 72 1012.0
20260507181006 61 229 1.7 2.6 0.00 0.34 0.21 71 1012.0
20260507180508 62 238 1.7 2.6 0.00 0.34 0.21 71 1012.0
20260507180006 62 248 1.7 2.6 0.00 0.34 0.21 70 1012.0
20260507175507 62 0 0.0 1.7 0.00 0.34 0.21 69 1012.0
20260507175009 63 291 1.7 1.7 0.00 0.34 0.21 68 1012.0
20260507174506 63 310 0.0 0.9 0.00 0.34 0.21 69 1012.0
20260507174008 63 248 0.0 0.9 0.00 0.34 0.21 68 1012.0
20260507173509 64 248 0.9 1.7 0.00 0.34 0.21 67 1012.0
20260507173007 64 248 0.9 1.7 0.00 0.34 0.21 66 1012.0
20260507172506 64 312 0.0 1.7 0.00 0.34 0.21 65 1012.0
20260507172007 64 0 0.0 0.9 0.00 0.34 0.21 64 1012.0
20260507171507 64 0 0.0 0.9 0.00 0.34 0.21 64 1012.0
20260507171007 65 0 0.0 0.9 0.00 0.34 0.21 63 1012.0
20260507165508 65 0 0.0 0.9 0.00 0.34 0.21 61 1012.0
20260507164506 66 180 0.9 1.7 0.00 0.34 0.21 60 1012.0
20260507164008 66 180 0.0 1.7 0.00 0.34 0.21 59 1012.0
20260507163509 66 175 0.0 1.7 0.00 0.34 0.21 59 1012.0
20260507163006 66 202 0.9 1.7 0.00 0.34 0.21 59 1012.0
20260507162506 66 224 0.9 1.7 0.00 0.34 0.21 60 1012.0
20260507161508 65 343 1.7 2.6 0.00 0.34 0.21 60 1012.0
20260507161008 65 148 0.0 2.6 0.00 0.34 0.21 61 1012.0
20260507160506 65 149 0.9 2.6 0.00 0.34 0.21 61 1012.0
20260507160006 65 182 1.7 2.6 0.00 0.34 0.21 61 1012.0
20260507155508 65 180 0.9 1.7 0.00 0.34 0.21 61 1012.0
20260507155007 66 180 0.9 2.6 0.00 0.34 0.21 61 1012.0
20260507154507 66 186 1.7 2.6 0.00 0.34 0.21 61 1012.0
20260507154009 66 188 1.7 1.7 0.00 0.34 0.21 61 1012.0
20260507153508 66 159 0.9 1.7 0.00 0.34 0.21 61 1012.0
20260507153006 66 202 0.0 1.7 0.00 0.34 0.21 61 1012.0
20260507152506 66 243 1.7 2.6 0.00 0.34 0.21 61 1012.0
20260507152010 66 158 1.7 1.7 0.00 0.34 0.21 62 1012.0
20260507151507 66 185 1.7 4.3 0.00 0.34 0.21 63 1012.0
20260507150506 66 138 1.7 4.3 0.00 0.34 0.21 64 1013.0
20260507150008 66 90 1.7 2.6 0.00 0.34 0.21 64 1013.0
20260507145505 66 143 1.7 2.6 0.00 0.34 0.21 65 1013.0
20260507145007 66 182 0.0 0.9 0.00 0.34 0.21 65 1013.0
20260507144007 66 189 0.9 1.7 0.00 0.34 0.21 64 1013.0
20260507143006 66 182 1.7 2.6 0.00 0.34 0.21 64 1013.0
20260507142507 66 180 0.0 4.3 0.00 0.34 0.21 64 1013.0
20260507142006 66 135 1.7 2.6 0.00 0.34 0.21 63 1013.0
20260507141008 66 188 1.7 4.3 0.00 0.34 0.21 60 1013.0
20260507140505 67 176 2.6 4.3 0.00 0.34 0.21 59 1013.0
20260507140006 68 160 1.7 2.6 0.00 0.34 0.21 57 1013.0
20260507135507 68 226 2.6 5.2 0.00 0.34 0.21 55 1012.0
20260507134006 70 120 2.6 4.3 0.00 0.34 0.21 55 1013.0
20260507133507 69 57 1.7 5.2 0.00 0.34 0.21 56 1013.0
20260507133006 69 124 1.7 5.2 0.00 0.34 0.21 56 1013.0
20260507132008 68 143 1.7 2.6 0.00 0.34 0.21 55 1014.0
20260507131505 68 90 2.6 4.3 0.00 0.34 0.21 56 1014.0
20260507131006 68 158 0.9 1.7 0.00 0.34 0.21 57 1014.0
20260507130506 67 238 0.9 1.7 0.00 0.34 0.21 57 1014.0
20260507130007 68 140 1.7 4.3 0.00 0.34 0.21 57 1014.0
20260507125505 68 195 0.9 2.6 0.00 0.34 0.21 57 1014.0
20260507124505 67 205 1.7 6.1 0.00 0.34 0.21 60 1014.0
20260507123506 67 157 1.7 2.6 0.00 0.34 0.21 60 1014.0
20260507122505 66 270 1.7 2.6 0.00 0.34 0.21 62 1015.0
20260507122007 66 90 1.7 1.7 0.00 0.34 0.21 62 1015.0
20260507121505 66 90 1.7 2.6 0.00 0.34 0.21 63 1015.0
20260507121006 66 124 1.7 2.6 0.00 0.34 0.21 62 1015.0
20260507120506 67 90 1.7 2.6 0.00 0.34 0.21 62 1015.0
20260507120008 67 90 2.6 5.2 0.00 0.34 0.21 63 1015.0
20260507115505 67 90 2.6 4.3 0.00 0.34 0.21 63 1015.0
20260507115006 67 141 1.7 4.3 0.00 0.34 0.21 64 1015.0
20260507114505 66 83 1.7 4.3 0.00 0.34 0.21 65 1015.0
20260507114008 66 90 1.7 2.6 0.00 0.34 0.21 66 1015.0
20260507113006 65 77 2.6 5.2 0.00 0.34 0.21 67 1015.0
20260507112505 65 96 2.6 5.2 0.00 0.34 0.21 67 1015.0
20260507111506 65 90 1.7 1.7 0.00 0.34 0.21 68 1015.0
20260507110007 65 73 2.6 5.2 0.00 0.34 0.21 70 1015.0
20260507105006 65 119 1.7 5.2 0.00 0.34 0.21 71 1015.0
20260507104007 64 90 2.6 4.3 0.00 0.34 0.21 73 1015.0
20260507103505 64 90 1.7 5.2 0.00 0.34 0.21 73 1015.0
20260507102506 64 90 1.7 5.2 0.00 0.34 0.21 74 1015.0
20260507102007 64 86 1.7 2.6 0.00 0.34 0.21 74 1015.0
20260507101507 64 90 2.6 4.3 0.00 0.34 0.21 75 1015.0
20260507101007 64 155 1.7 2.6 0.00 0.34 0.21 76 1015.0
20260507100006 63 269 0.9 4.3 0.00 0.34 0.21 76 1015.0
20260507095006 64 131 2.6 5.2 0.00 0.34 0.21 80 1015.0
20260507094005 63 167 1.7 5.2 0.00 0.34 0.21 81 1014.0
20260507093505 63 116 1.7 5.2 0.00 0.34 0.21 81 1014.0
20260507093006 62 187 2.6 4.3 0.00 0.34 0.21 83 1014.0
20260507092507 63 130 2.6 4.3 0.00 0.34 0.21 85 1015.0
20260507092006 63 152 2.6 2.6 0.00 0.34 0.21 87 1015.0
20260507091006 62 116 1.7 5.2 0.00 0.34 0.21 91 1015.0
20260507090507 62 66 1.7 4.3 0.00 0.34 0.21 92 1015.0
20260507090006 62 103 2.6 4.3 0.00 0.34 0.21 96 1015.0
20260507085506 61 108 1.7 4.3 0.00 0.34 0.21 97 1014.0
20260507085006 61 103 0.9 4.3 0.00 0.34 0.21 97 1014.0
20260507084006 60 97 2.6 4.3 0.00 0.34 0.21 97 1015.0
20260507083505 59 90 1.7 4.3 0.00 0.34 0.21 97 1015.0
20260507083006 59 90 2.6 4.3 0.00 0.34 0.21 97 1015.0
20260507082507 59 90 2.6 4.3 0.00 0.34 0.21 97 1015.0
20260507082006 58 90 2.6 4.3 0.00 0.34 0.21 97 1015.0
20260507081506 58 102 0.9 1.7 0.00 0.34 0.21 97 1015.0
20260507081007 57 158 1.7 1.7 0.00 0.34 0.21 97 1015.0
20260507080507 56 270 0.0 2.6 0.00 0.34 0.21 97 1015.0
20260507080005 56 282 0.0 2.6 0.00 0.34 0.21 97 1015.0
20260507075006 56 181 0.0 1.7 0.00 0.34 0.21 97 1015.0
20260507074508 56 45 0.0 0.9 0.00 0.34 0.21 97 1015.0
20260507071035 54 248 0.0 1.7 0.00 0.34 0.21 97 1015.0
20260507070033 54 112 0.9 2.6 0.00 0.34 0.21 97 1015.0
20260507065532 55 90 1.7 2.6 0.00 0.34 0.21 97 1015.0
20260507065034 54 90 1.7 1.7 0.00 0.34 0.21 97 1015.0
20260507064033 54 90 0.0 0.0 0.00 0.34 0.21 97 1015.0
20260507063035 54 90 0.0 0.0 0.00 0.34 0.21 97 1015.0
20260507062532 54 90 0.0 0.0 0.00 0.34 0.21 97 1015.0
20260507062033 54 90 0.0 0.9 0.00 0.34 0.21 97 1015.0
20260507061533 54 90 0.9 1.7 0.00 0.34 0.21 97 1015.0
20260507061035 54 97 0.9 2.6 0.00 0.34 0.21 97 1015.0
20260507060533 54 90 2.6 2.6 0.00 0.34 0.21 97 1015.0